| time (UTC) | temp F | wind direction | speed MPH | gust MPH | rain 1hr in | rain 24hr in | rain mn in | humidity % | barometer mb |
| 20260502232828 | 55 | 341 | 0.0 | 0.0 | 0.00 | 0.00 | 0.00 | 69 | 1011.3 |
| 20260502232327 | 56 | 341 | 0.0 | 0.0 | 0.00 | 0.00 | 0.00 | 67 | 1011.2 |
| 20260502231827 | 56 | 341 | 0.0 | 0.0 | 0.00 | 0.00 | 0.00 | 65 | 1011.1 |
| 20260502231349 | 57 | 341 | 0.0 | 0.0 | 0.00 | 0.00 | 0.00 | 64 | 1011.1 |
| 20260502230827 | 58 | 341 | 0.0 | 0.0 | 0.00 | 0.00 | 0.00 | 63 | 1011.1 |
| 20260502230328 | 58 | 341 | 0.0 | 0.0 | 0.00 | 0.00 | 0.00 | 63 | 1011.1 |
| 20260502225825 | 58 | 341 | 0.0 | 0.0 | 0.00 | 0.00 | 0.00 | 62 | 1011.0 |
| 20260502225323 | 59 | 341 | 0.0 | 0.0 | 0.00 | 0.00 | 0.00 | 62 | 1011.0 |
| 20260502224821 | 59 | 341 | 0.0 | 0.0 | 0.00 | 0.00 | 0.00 | 58 | 1011.0 |
| 20260502224320 | 59 | 341 | 0.0 | 1.0 | 0.00 | 0.00 | 0.00 | 59 | 1011.0 |
| 20260502223816 | 59 | 341 | 0.0 | 1.0 | 0.00 | 0.00 | 0.00 | 57 | 1011.0 |
| 20260502223315 | 59 | 341 | 0.0 | 1.0 | 0.00 | 0.00 | 0.00 | 56 | 1010.9 |
| 20260502222839 | 59 | 341 | 0.0 | 1.0 | 0.00 | 0.00 | 0.00 | 56 | 1010.9 |
| 20260502222351 | 60 | 341 | 0.0 | 1.0 | 0.00 | 0.00 | 0.00 | 56 | 1011.0 |
| 20260502221828 | 60 | 341 | 0.0 | 1.0 | 0.00 | 0.00 | 0.00 | 55 | 1010.9 |
| 20260502221327 | 61 | 341 | 0.0 | 1.0 | 0.00 | 0.00 | 0.00 | 53 | 1010.8 |
| 20260502220826 | 61 | 341 | 0.0 | 0.0 | 0.00 | 0.00 | 0.00 | 54 | 1011.0 |
| 20260502220352 | 61 | 341 | 0.0 | 1.0 | 0.00 | 0.00 | 0.00 | 53 | 1010.9 |
| 20260502215830 | 61 | 341 | 0.0 | 1.0 | 0.00 | 0.00 | 0.00 | 53 | 1010.9 |
| 20260502215329 | 61 | 341 | 0.0 | 1.0 | 0.00 | 0.00 | 0.00 | 53 | 1010.9 |
| 20260502214816 | 61 | 341 | 0.0 | 1.0 | 0.00 | 0.00 | 0.00 | 52 | 1011.0 |
| 20260502214334 | 61 | 341 | 0.0 | 2.0 | 0.00 | 0.00 | 0.00 | 51 | 1010.9 |
| 20260502213830 | 62 | 341 | 0.0 | 2.0 | 0.00 | 0.00 | 0.00 | 52 | 1011.1 |
| 20260502213329 | 62 | 341 | 0.0 | 1.0 | 0.00 | 0.00 | 0.00 | 51 | 1011.0 |
| 20260502212839 | 63 | 341 | 0.0 | 1.0 | 0.00 | 0.00 | 0.00 | 49 | 1011.1 |
| 20260502212317 | 63 | 341 | 0.0 | 2.0 | 0.00 | 0.00 | 0.00 | 48 | 1011.0 |
| 20260502211816 | 64 | 341 | 0.0 | 2.0 | 0.00 | 0.00 | 0.00 | 47 | 1011.1 |
| 20260502211316 | 63 | 341 | 0.0 | 1.0 | 0.00 | 0.00 | 0.00 | 52 | 1011.2 |
| 20260502210901 | 62 | 341 | 0.0 | 1.0 | 0.00 | 0.00 | 0.00 | 49 | 1011.0 |
| 20260502210329 | 62 | 341 | 0.0 | 3.0 | 0.00 | 0.00 | 0.00 | 51 | 1011.2 |
| 20260502205827 | 61 | 341 | 0.0 | 3.0 | 0.00 | 0.00 | 0.00 | 49 | 1011.2 |
| 20260502205326 | 61 | 341 | 1.0 | 1.0 | 0.00 | 0.00 | 0.00 | 51 | 1011.0 |
| 20260502204822 | 61 | 341 | 0.0 | 1.0 | 0.00 | 0.00 | 0.00 | 54 | 1011.0 |
| 20260502204319 | 61 | 341 | 0.0 | 1.0 | 0.00 | 0.00 | 0.00 | 55 | 1011.1 |
| 20260502203814 | 60 | 341 | 0.0 | 1.0 | 0.00 | 0.00 | 0.00 | 53 | 1011.2 |
| 20260502203314 | 60 | 341 | 0.0 | 1.0 | 0.00 | 0.00 | 0.00 | 53 | 1011.2 |
| 20260502202813 | 60 | 341 | 0.0 | 1.0 | 0.00 | 0.00 | 0.00 | 54 | 1011.2 |
| 20260502202312 | 60 | 341 | 0.0 | 1.0 | 0.00 | 0.00 | 0.00 | 53 | 1011.2 |
| 20260502201837 | 60 | 341 | 0.0 | 2.0 | 0.00 | 0.00 | 0.00 | 53 | 1011.3 |
| 20260502201335 | 60 | 341 | 0.0 | 2.0 | 0.00 | 0.00 | 0.00 | 52 | 1011.1 |
| 20260502200833 | 60 | 341 | 0.0 | 1.0 | 0.00 | 0.00 | 0.00 | 50 | 1011.3 |
| 20260502200333 | 61 | 341 | 0.0 | 3.0 | 0.00 | 0.00 | 0.00 | 52 | 1011.3 |
| 20260502195832 | 61 | 341 | 1.0 | 3.0 | 0.00 | 0.00 | 0.00 | 52 | 1011.2 |
| 20260502195330 | 61 | 341 | 0.0 | 2.0 | 0.00 | 0.00 | 0.00 | 54 | 1011.3 |
| 20260502194828 | 61 | 341 | 0.0 | 2.0 | 0.00 | 0.00 | 0.00 | 53 | 1011.4 |
| 20260502194350 | 60 | 341 | 0.0 | 6.0 | 0.00 | 0.00 | 0.00 | 53 | 1011.4 |
| 20260502193828 | 60 | 341 | 0.0 | 6.0 | 0.00 | 0.00 | 0.00 | 51 | 1011.4 |
| 20260502193351 | 61 | 341 | 1.0 | 3.0 | 0.00 | 0.00 | 0.00 | 51 | 1011.4 |
| 20260502192845 | 61 | 341 | 1.0 | 3.0 | 0.00 | 0.00 | 0.00 | 52 | 1011.7 |
| 20260502192324 | 60 | 341 | 0.0 | 2.0 | 0.00 | 0.00 | 0.00 | 58 | 1011.7 |
| 20260502191821 | 60 | 341 | 1.0 | 4.0 | 0.00 | 0.00 | 0.00 | 55 | 1011.7 |
| 20260502191320 | 60 | 341 | 1.0 | 4.0 | 0.00 | 0.00 | 0.00 | 52 | 1011.8 |
| 20260502190819 | 60 | 341 | 1.0 | 2.0 | 0.00 | 0.00 | 0.00 | 54 | 1011.9 |
| 20260502190317 | 60 | 341 | 0.0 | 3.0 | 0.00 | 0.00 | 0.00 | 56 | 1011.8 |
| 20260502185816 | 59 | 341 | 1.0 | 4.0 | 0.00 | 0.00 | 0.00 | 56 | 1012.0 |
| 20260502185356 | 60 | 341 | 1.0 | 4.0 | 0.00 | 0.00 | 0.00 | 54 | 1011.9 |
| 20260502184835 | 60 | 341 | 1.0 | 3.0 | 0.00 | 0.00 | 0.00 | 56 | 1012.0 |
| 20260502184337 | 60 | 341 | 0.0 | 5.0 | 0.00 | 0.00 | 0.00 | 56 | 1012.1 |
| 20260502183835 | 60 | 341 | 1.0 | 4.0 | 0.00 | 0.00 | 0.00 | 56 | 1012.1 |
| 20260502183333 | 60 | 341 | 0.0 | 4.0 | 0.00 | 0.00 | 0.00 | 57 | 1012.0 |
| 20260502182830 | 60 | 341 | 1.0 | 4.0 | 0.00 | 0.00 | 0.00 | 56 | 1012.2 |
| 20260502182325 | 61 | 341 | 1.0 | 4.0 | 0.00 | 0.00 | 0.00 | 54 | 1012.2 |
| 20260502181824 | 60 | 341 | 0.0 | 3.0 | 0.00 | 0.00 | 0.00 | 55 | 1012.2 |
| 20260502181349 | 61 | 341 | 0.0 | 6.0 | 0.00 | 0.00 | 0.00 | 54 | 1012.2 |
| 20260502180827 | 61 | 341 | 1.0 | 6.0 | 0.00 | 0.00 | 0.00 | 54 | 1012.1 |
| 20260502180321 | 60 | 341 | 0.0 | 4.0 | 0.00 | 0.00 | 0.00 | 55 | 1012.2 |
| 20260502170314 | 57 | 341 | 1.0 | 3.0 | 0.00 | 0.00 | 0.00 | 61 | 1013.3 |
| 20260502164312 | 56 | 341 | 0.0 | 5.0 | 0.00 | 0.00 | 0.00 | 62 | 1013.8 |
| 20260502163837 | 56 | 341 | 1.0 | 5.0 | 0.00 | 0.00 | 0.00 | 64 | 1014.0 |
| 20260502163336 | 56 | 341 | 0.0 | 5.0 | 0.00 | 0.00 | 0.00 | 64 | 1013.9 |
| 20260502162833 | 56 | 341 | 1.0 | 3.0 | 0.00 | 0.00 | 0.00 | 64 | 1013.8 |
| 20260502162331 | 56 | 341 | 1.0 | 4.0 | 0.00 | 0.00 | 0.00 | 64 | 1013.8 |
| 20260502161829 | 56 | 341 | 1.0 | 6.0 | 0.00 | 0.00 | 0.00 | 63 | 1013.8 |
| 20260502161321 | 56 | 341 | 2.0 | 6.0 | 0.00 | 0.00 | 0.00 | 64 | 1013.8 |
| 20260502160821 | 56 | 341 | 0.0 | 5.0 | 0.00 | 0.00 | 0.00 | 66 | 1013.8 |
| 20260502160318 | 56 | 341 | 0.0 | 5.0 | 0.00 | 0.00 | 0.00 | 66 | 1013.8 |
| 20260502152331 | 56 | 341 | 1.0 | 6.0 | 0.00 | 0.00 | 0.00 | 69 | 1013.7 |
| 20260502151827 | 56 | 341 | 1.0 | 8.0 | 0.00 | 0.00 | 0.00 | 68 | 1013.7 |
| 20260502151323 | 56 | 341 | 2.0 | 8.0 | 0.00 | 0.00 | 0.00 | 68 | 1013.8 |
| 20260502150821 | 56 | 341 | 1.0 | 4.0 | 0.00 | 0.00 | 0.00 | 70 | 1013.8 |
| 20260502150320 | 56 | 341 | 1.0 | 5.0 | 0.00 | 0.00 | 0.00 | 71 | 1014.0 |
| 20260502130333 | 54 | 341 | 0.0 | 2.0 | 0.00 | 0.00 | 0.00 | 77 | 1013.1 |
| 20260502052848 | 51 | 341 | 1.0 | 5.0 | 0.00 | 0.00 | 0.00 | 86 | 1011.9 |
| 20260502052325 | 51 | 341 | 1.0 | 3.0 | 0.00 | 0.00 | 0.00 | 86 | 1011.9 |
| 20260502051333 | 51 | 341 | 0.0 | 2.0 | 0.00 | 0.00 | 0.00 | 86 | 1012.0 |
| 20260502050833 | 51 | 341 | 1.0 | 3.0 | 0.00 | 0.00 | 0.00 | 85 | 1012.0 |
| 20260502050333 | 51 | 341 | 0.0 | 3.0 | 0.00 | 0.00 | 0.00 | 85 | 1012.0 |
| 20260502045829 | 51 | 341 | 0.0 | 4.0 | 0.00 | 0.00 | 0.00 | 85 | 1012.0 |
| 20260502045334 | 51 | 341 | 1.0 | 4.0 | 0.00 | 0.00 | 0.00 | 85 | 1012.1 |
| 20260502044833 | 51 | 341 | 0.0 | 2.0 | 0.00 | 0.00 | 0.00 | 84 | 1012.1 |
| 20260502044333 | 51 | 341 | 0.0 | 2.0 | 0.00 | 0.00 | 0.00 | 84 | 1012.2 |
| 20260502043833 | 51 | 341 | 0.0 | 2.0 | 0.00 | 0.00 | 0.00 | 84 | 1012.2 |
| 20260502043332 | 52 | 341 | 0.0 | 2.0 | 0.00 | 0.00 | 0.00 | 83 | 1012.2 |
| 20260502042829 | 52 | 341 | 0.0 | 2.0 | 0.00 | 0.00 | 0.00 | 83 | 1012.2 |
| 20260502042325 | 52 | 341 | 0.0 | 5.0 | 0.00 | 0.00 | 0.00 | 83 | 1012.2 |
| 20260502041825 | 52 | 341 | 0.0 | 4.0 | 0.00 | 0.00 | 0.00 | 83 | 1012.1 |
| 20260502041324 | 52 | 341 | 1.0 | 4.0 | 0.00 | 0.00 | 0.00 | 83 | 1012.1 |
| 20260502040824 | 52 | 341 | 1.0 | 3.0 | 0.00 | 0.00 | 0.00 | 83 | 1012.2 |
| 20260502040323 | 52 | 341 | 0.0 | 3.0 | 0.00 | 0.00 | 0.00 | 83 | 1012.2 |
| 20260502035824 | 52 | 341 | 1.0 | 3.0 | 0.00 | 0.00 | 0.00 | 83 | 1012.3 |
| 20260502035323 | 52 | 341 | 0.0 | 2.0 | 0.00 | 0.00 | 0.00 | 82 | 1012.3 |
| 20260502034825 | 52 | 341 | 0.0 | 2.0 | 0.00 | 0.00 | 0.00 | 82 | 1012.1 |
| 20260502034322 | 52 | 341 | 0.0 | 3.0 | 0.00 | 0.00 | 0.00 | 82 | 1012.2 |
| 20260502033819 | 52 | 341 | 0.0 | 3.0 | 0.00 | 0.00 | 0.00 | 82 | 1012.0 |
| 20260502033320 | 53 | 341 | 0.0 | 2.0 | 0.00 | 0.00 | 0.00 | 81 | 1012.1 |
| 20260502032818 | 53 | 341 | 0.0 | 2.0 | 0.00 | 0.00 | 0.00 | 81 | 1012.0 |
| 20260502032318 | 53 | 341 | 0.0 | 2.0 | 0.00 | 0.00 | 0.00 | 81 | 1012.2 |
| 20260502031814 | 53 | 341 | 0.0 | 4.0 | 0.00 | 0.00 | 0.00 | 81 | 1012.3 |
| 20260502031311 | 53 | 341 | 1.0 | 4.0 | 0.00 | 0.00 | 0.00 | 81 | 1012.2 |
| 20260502030836 | 53 | 341 | 0.0 | 3.0 | 0.00 | 0.00 | 0.00 | 80 | 1012.2 |
| 20260502030314 | 53 | 341 | 0.0 | 4.0 | 0.00 | 0.00 | 0.00 | 80 | 1012.0 |
| 20260502025813 | 53 | 341 | 0.0 | 4.0 | 0.00 | 0.00 | 0.00 | 80 | 1012.1 |
| 20260502025338 | 53 | 341 | 0.0 | 3.0 | 0.00 | 0.00 | 0.00 | 79 | 1012.1 |
| 20260502024816 | 53 | 341 | 1.0 | 3.0 | 0.00 | 0.00 | 0.00 | 79 | 1012.1 |
| 20260502024314 | 54 | 341 | 0.0 | 3.0 | 0.00 | 0.00 | 0.00 | 79 | 1012.2 |
| 20260502023840 | 54 | 341 | 0.0 | 4.0 | 0.00 | 0.00 | 0.00 | 78 | 1012.1 |
| 20260502023318 | 54 | 341 | 0.0 | 4.0 | 0.00 | 0.00 | 0.00 | 78 | 1012.0 |
| 20260502022841 | 54 | 341 | 1.0 | 4.0 | 0.00 | 0.00 | 0.00 | 78 | 1012.0 |
| 20260502022319 | 54 | 341 | 0.0 | 3.0 | 0.00 | 0.00 | 0.00 | 77 | 1012.0 |
| 20260502021819 | 54 | 341 | 1.0 | 2.0 | 0.00 | 0.00 | 0.00 | 77 | 1012.0 |
| 20260502021318 | 55 | 341 | 0.0 | 5.0 | 0.00 | 0.00 | 0.00 | 76 | 1012.0 |
| 20260502020842 | 55 | 341 | 0.0 | 3.0 | 0.00 | 0.00 | 0.00 | 76 | 1011.9 |
| 20260502020319 | 55 | 341 | 1.0 | 3.0 | 0.00 | 0.00 | 0.00 | 76 | 1012.0 |
| 20260502015818 | 55 | 341 | 0.0 | 3.0 | 0.00 | 0.00 | 0.00 | 75 | 1012.0 |
| 20260502015342 | 55 | 341 | 0.0 | 3.0 | 0.00 | 0.00 | 0.00 | 75 | 1012.0 |
| 20260502014821 | 56 | 341 | 0.0 | 3.0 | 0.00 | 0.00 | 0.00 | 74 | 1011.9 |
| 20260502014320 | 56 | 341 | 0.0 | 4.0 | 0.00 | 0.00 | 0.00 | 74 | 1011.9 |
| 20260502013814 | 56 | 341 | 1.0 | 4.0 | 0.00 | 0.00 | 0.00 | 74 | 1012.0 |
| 20260502013314 | 56 | 341 | 1.0 | 3.0 | 0.00 | 0.00 | 0.00 | 73 | 1012.0 |
| 20260502012814 | 56 | 341 | 0.0 | 3.0 | 0.00 | 0.00 | 0.00 | 73 | 1011.9 |
| 20260502012312 | 57 | 341 | 1.0 | 3.0 | 0.00 | 0.00 | 0.00 | 73 | 1011.8 |
| 20260502011812 | 57 | 341 | 0.0 | 3.0 | 0.00 | 0.00 | 0.00 | 72 | 1011.6 |
| 20260502011338 | 57 | 341 | 0.0 | 3.0 | 0.00 | 0.00 | 0.00 | 72 | 1011.4 |
| 20260502010815 | 57 | 341 | 0.0 | 2.0 | 0.00 | 0.00 | 0.00 | 71 | 1011.6 |
| 20260502010314 | 57 | 341 | 1.0 | 4.0 | 0.00 | 0.00 | 0.00 | 71 | 1011.5 |
| 20260502005839 | 57 | 341 | 1.0 | 4.0 | 0.00 | 0.00 | 0.00 | 71 | 1011.4 |
| 20260502005316 | 57 | 341 | 1.0 | 4.0 | 0.00 | 0.00 | 0.00 | 71 | 1011.3 |
| 20260502004816 | 57 | 341 | 0.0 | 4.0 | 0.00 | 0.00 | 0.00 | 71 | 1011.1 |
| 20260502004312 | 56 | 341 | 0.0 | 2.0 | 0.00 | 0.00 | 0.00 | 71 | 1011.1 |
| 20260502003859 | 56 | 341 | 0.0 | 2.0 | 0.00 | 0.00 | 0.00 | 72 | 1011.1 |
| 20260502003336 | 56 | 341 | 0.0 | 1.0 | 0.00 | 0.00 | 0.00 | 71 | 1010.9 |
| 20260502002836 | 57 | 341 | 0.0 | 0.0 | 0.00 | 0.00 | 0.00 | 70 | 1010.8 |
| 20260502002335 | 57 | 341 | 0.0 | 0.0 | 0.00 | 0.00 | 0.00 | 68 | 1010.6 |
| 20260502001859 | 58 | 341 | 0.0 | 0.0 | 0.00 | 0.00 | 0.00 | 68 | 1010.5 |
| 20260502001336 | 59 | 341 | 0.0 | 0.0 | 0.00 | 0.00 | 0.00 | 67 | 1010.4 |
| 20260502000836 | 59 | 341 | 0.0 | 0.0 | 0.00 | 0.00 | 0.00 | 65 | 1010.3 |
| 20260502000333 | 60 | 341 | 0.0 | 0.0 | 0.00 | 0.00 | 0.00 | 64 | 1010.5 |
| 20260501235828 | 61 | 341 | 0.0 | 0.0 | 0.00 | 0.00 | 0.00 | 62 | 1010.4 |
| 20260501235327 | 62 | 341 | 0.0 | 0.0 | 0.00 | 0.00 | 0.00 | 61 | 1010.5 |
| 20260501234827 | 63 | 341 | 0.0 | 0.0 | 0.00 | 0.00 | 0.00 | 59 | 1010.7 |
| 20260501234327 | 63 | 341 | 0.0 | 1.0 | 0.00 | 0.00 | 0.00 | 59 | 1010.5 |
| 20260501233826 | 64 | 341 | 0.0 | 1.0 | 0.00 | 0.00 | 0.00 | 58 | 1010.5 |
| 20260501233325 | 64 | 341 | 0.0 | 1.0 | 0.00 | 0.00 | 0.00 | 57 | 1010.6 |